Location: La B�doule
(43.2468°N, 5.5934°E)
Time: 11:44:37
(UTC+00:00)

STARLINK-1267 - Pass Details

Date: 07 June 2020
Orbit: 548 x 551 km, 53.0° (Epoch: 11 July)

Event Time Altitude Azimuth Distance (km) Brightness Sun altitude
Exits shadow 23:46:11 31° 83° (E) 970 4.9 -23.9°
Drops below altitude 10° 23:48:37 10° 63° (ENE) 1,817 6.6 -23.9°
Enters shadow 00:50:14 -60° 239° (WSW) 11,663 10.3 -21.8°
